Regional Weather Roundup
Issued by NWS Little Rock, AR

Home | Current Version | Previous Version | Graphics & Text | Print | Product List | Glossary On
Versions: 1 2 3 4 5 6 7 8 9 10 11 12 13 14 15 16 17 18 19 20 21 22 23 24 25 26 27 28 29 30 31 32 33 34 35 36 37 38 39 40 41 42 43 44 45 46 47 48 49 50
000
ASUS44 KLZK 260205
RWRLZK

WEATHER ROUNDUP FOR ARKANSAS
NATIONAL WEATHER SERVICE LITTLE ROCK AR
900 PM CDT FRI JUL 25 2014

NOTE: "FAIR" INDICATES FEW OR NO CLOUDS BELOW 12,000 FEET WITH NO
SIGNIFICANT WEATHER AND/OR OBSTRUCTIONS TO VISIBILITY.

ARZ001-003-010-029-260300-
NORTHWEST ARKANSAS

CITY           SKY/WX    TMP DP  RH WIND       PRES   REMARKS
FAYETTEVILLE   CLEAR     79  72  79 VRB3      29.96S
FORT SMITH     CLEAR     84  73  69 S3        29.92S HX  90
HARRISON       CLEAR     76  71  85 S7        29.96F
BENTONVILLE    CLEAR     81  68  65 S7        29.95F
ROGERS         CLEAR     81  70  69 S9        29.95F
SILOAM SPGS    CLEAR     81  66  61 S8        29.95F
HIGHFILL       CLEAR     79  72  79 S7        29.94F
SPRINGDALE     CLEAR     81  72  74 S13       29.97S
$$

ARZ004-005-016-260300-
NORTH CENTRAL ARKANSAS

CITY           SKY/WX    TMP DP  RH WIND       PRES   REMARKS
BATESVILLE     CLEAR     79  70  73 S6        29.95S
FLIPPIN        CLEAR     81  72  74 S6        29.94S
MTN HOME       CLEAR     78  71  79 S6        29.93S
$$

ARZ040-041-260300-
WEST CENTRAL ARKANSAS

CITY           SKY/WX    TMP DP  RH WIND       PRES   REMARKS
MENA           CLEAR     79  75  89 CALM      30.00R
MOUNT IDA      CLEAR     77  73  87 CALM      29.96S FOG
$$

ARZ009-017-025-026-028-260300-
NORTHEAST ARKANSAS

CITY           SKY/WX    TMP DP  RH WIND       PRES   REMARKS
JONESBORO      PTCLDY    76  67  73 S3        29.95F
NEWPORT        PTCLDY    76  71  84 SE6       29.97R
WALNUT RIDGE   PTCLDY    75  50  41 S7        29.95S
BLYTHEVILLE    MOCLDY    75  66  73 SW6       29.96S
$$

ARZ022-023-033-042-044-260300-
CENTRAL ARKANSAS

CITY           SKY/WX    TMP DP  RH WIND       PRES   REMARKS
LITTLE ROCK    PTCLDY    80  71  74 S5        29.97R
N LITTLE ROCK  PTCLDY    81  74  78 S3        29.97R HX  86
JACKSONVILLE   LGT RAIN  78  73  84 S3        29.96S
SEARCY         CLEAR     77  72  84 W3        29.97F
HOT SPRINGS    CLEAR     81  73  76 CALM      29.97S HX  86
RUSSELLVILLE   CLEAR     78  74  87 CALM      29.95S
CLINTON        FAIR      79  73  83 CALM      29.95F
$$

ARZ036-260300-
EAST ARKANSAS

CITY           SKY/WX    TMP DP  RH WIND       PRES   REMARKS
WEST MEMPHIS   PTCLDY    75  66  73 SW3       29.96R
$$

ARZ050-053-066-070-073-260300-
SOUTHWEST ARKANSAS

CITY           SKY/WX    TMP DP  RH WIND       PRES   REMARKS
ARKADELPHIA    FAIR      81  79  94 CALM      29.96S HX  90
CAMDEN         CLEAR     79  73  83 CALM      29.96S
TEXARKANA      CLEAR     81  75  82 SE3       29.96S HX  87
EL DORADO      CLEAR     78  76  93 CALM      29.98R
DE QUEEN       CLEAR     80  76  87 E3        29.94R HX  86
$$

ARZ056-057-069-260300-
SOUTHEAST ARKANSAS

CITY           SKY/WX    TMP DP  RH WIND       PRES   REMARKS
PINE BLUFF     CLEAR     78  72  81 CALM      29.97S
STUTTGART      CLEAR     81  70  69 S7        29.97F
MONTICELLO     CLEAR     80  73  79 SE3       29.97F

$$




USA.gov is the U.S. government's official web portal to all federal, state and local government web resources and services.